Flag for Austria Weather past 2 weeks in Graz, Styria, Austria

Now
72 °F

Sprinkles. Broken clouds.


Feels Like: 74 °F
Forecast: 58 / 75 °F
Wind: 5 mph from Southwest

Location: Graz-Thalerhof-Flughafen

Current Time: Jul 25, 2014 at 4:49:10 PM

Latest Report: Jul 25, 2014 at 3:50 PM


Visibility: N/A

Pressure: 29.98 "Hg

Humidity: 73%

Dew point: 63 °F

Location of GrazLocation

Historic Weather in Graz — Graph

°F

Graz temperature yesterday

Maximum temperature yesterday: 79 °F (at 2:50 PM)
Minimum temperature yesterday: 55 °F (at 4:20 AM)
Average temperature yesterday: 69 °F

Past Weeks' High & Low Weather Summary

 TemperatureHumidityPressure
High88 °F (Jul 20, 3:50 PM)100% (Jul 11, 1:20 AM)30.15 "Hg (Jul 11, 1:20 AM)
Low55 °F (Jul 11, 1:20 AM)40% (Jul 18, 11:50 AM)29.71 "Hg (Jul 11, 1:50 PM)
Average69 °F73%29.94 "Hg
* Reported Jul 10 3:20 PM — Jul 25 3:20 PM, Graz, Weather by CustomWeather, © 2014

Note: Actual official high and low records may vary slightly from our data, if they occured in-between our weather recording intervals... More about our weather records

Advertising

Graz weather history for previous 24 hours

 ConditionsComfort  
Time TempWeatherWind HumidityBarometerVisibility
3:20 PM
Jul 25
72 °FSprinkles. Broken clouds.7 mph65%29.98 "HgN/A
2:50 PM73 °FBroken clouds.7 mph61%29.98 "HgN/A
2:20 PM73 °FBroken clouds.6 mph61%29.98 "HgN/A
1:50 PM72 °FSprinkles. Broken clouds.5 mph73%29.98 "HgN/A
1:20 PM73 °FSprinkles. Broken clouds.2 mph61%29.98 "HgN/A
12:50 PM73 °FSprinkles. Broken clouds.2 mph61%29.98 "HgN/A
12:20 PM73 °FPartly sunny.3 mph65%29.98 "HgN/A
11:50 AM72 °FPartly sunny.3 mph73%29.98 "HgN/A
11:20 AM70 °FPartly sunny.2 mph73%29.98 "HgN/A
10:50 AM70 °FPartly sunny.2 mph73%29.98 "HgN/A
10:20 AM66 °FPartly sunny.2 mph83%29.98 "HgN/A
9:50 AM66 °FPartly sunny.2 mph83%29.95 "HgN/A
9:20 AM64 °FSprinkles. Broken clouds.2 mph88%29.95 "HgN/A
8:50 AM64 °FSprinkles. Broken clouds.1 mph94%29.95 "HgN/A
8:20 AM64 °FLight rain. Broken clouds.2 mph88%29.95 "HgN/A
7:50 AM64 °FSprinkles. Partly sunny.1 mph88%29.95 "HgN/A
7:20 AM63 °FPartly sunny.1 mph94%29.95 "HgN/A
6:50 AM63 °FSprinkles. Partly sunny.3 mph88%29.95 "HgN/A
6:20 AM63 °FSprinkles. Passing clouds.3 mph88%29.92 "HgN/A
5:50 AM64 °FRain showers. Passing clouds.7 mph83%29.92 "HgN/A
5:20 AM64 °FPartly cloudy.5 mph83%29.92 "HgN/A
4:50 AM66 °FPassing clouds.3 mph78%29.92 "HgN/A
4:20 AM64 °FPassing clouds.3 mph88%29.92 "HgN/A
3:50 AM66 °FPassing clouds.2 mph83%29.92 "HgN/A
3:20 AM66 °FSprinkles. Passing clouds.1 mph88%29.92 "HgN/A
2:50 AM66 °FPassing clouds.1 mph88%29.92 "HgN/A
2:20 AM66 °FSprinkles. Passing clouds.2 mph83%29.92 "HgN/A
1:50 AM66 °FPassing clouds.5 mph83%29.92 "HgN/A
1:20 AM66 °FOvercast.3 mph88%29.92 "HgN/A
12:50 AM66 °FPassing clouds.3 mph88%29.92 "HgN/A
12:20 AM68 °FPartly cloudy.5 mph83%29.92 "HgN/A
11:50 PM
Jul 24
68 °FPartly cloudy.6 mph83%29.92 "HgN/A
11:20 PM68 °FPassing clouds.7 mph78%29.89 "HgN/A
10:50 PM70 °FPassing clouds.6 mph69%29.89 "HgN/A
10:20 PM70 °FPassing clouds.6 mph69%29.89 "HgN/A
9:50 PM70 °FPassing clouds.5 mph69%29.89 "HgN/A
9:20 PM70 °FBroken clouds.3 mph64%29.89 "HgN/A
8:50 PM72 °FBroken clouds.5 mph61%29.86 "HgN/A
8:20 PM73 °FBroken clouds.7 mph57%29.86 "HgN/A
7:50 PM73 °FBroken clouds.8 mph61%29.86 "HgN/A
7:20 PM75 °FPartly sunny.9 mph57%29.86 "HgN/A
6:50 PM75 °FPartly sunny.9 mph57%29.83 "HgN/A
6:20 PM77 °FScattered clouds.10 mph51%29.83 "HgN/A
5:50 PM79 °FScattered clouds.10 mph48%29.83 "HgN/A
5:20 PM79 °FPassing clouds.8 mph48%29.83 "HgN/A
4:50 PM79 °FPassing clouds.8 mph45%29.83 "HgN/A
4:20 PM79 °FPassing clouds.7 mph42%29.86 "HgN/A
Weather by CustomWeather, © 2014

See weather overviewHow to use our weather pages